THOR ABLESTAR DEB, 263

Orbit data source: Space-Track

THOR ABLESTAR DEB, 263 is space debris in LEO originally from a launch on Thu, 29 Jun 1961 UTC launched from the Air Force Eastern Test Range (AFETR). Debris objects in space refer to the collection of defunct objects orbiting the Earth. Examples of debris include non-operational satellites, rocket bodies, and fragments generated from explosions, collisions, or faulty payload assembly.

Loading next visibility...
Identifier
263, 1961-015CK
Orbit
LEO
Country
Flag of USUS
Related business
Manufacturer
Unknown
Mission
Spacecraft
Bus & Motor
Unknown
Mass
Unknown
Launch date (UTC)
1961-06-29 (64 years ago)
Launch vehicle
Unknown
Launch site
Air Force Eastern Test Range (AFETR)
Object type
Payload
Rocket body
Debris
Shape & HBR
Unknown shape, 0.2 m
Radar Cross Section
Small (<0.1 m²)

Expand to show TLE details & history
Last TLE update: 9 hours ago

TLE from 9 hours ago
0 THOR ABLESTAR DEB
1   263U 61015CK  25298.52039603  .00001788  00000-0  49724-3 0  9991
2   263  66.5318  43.4259 0089863  76.2177  20.3265 14.46508077349346
Epoch: 2025-10-25T12:29Z
TLE epoch observation values (Epoch: 2025-10-25T12:29:22.216Z)
Latitude
65.70632°
Longitude
-71.13125°
Altitude
687.66 km
Speed
7.551 km/s
True Right ascension
10h 01m 26s
True Declination
65° 34' 33"
Sunlit
Object was in daylight at epoch
Visualization orbit readout
Latitude
Unknown
Longitude
Unknown
Altitude
Unknown
Speed
Unknown
Apparent Right ascension
Unknown
Apparent Declination
Unknown
Sunlit
N/A
Visualization observer readout
Local Sidereal Time
16:41:15
Azimuth
Unknown
Elevation
Unknown
Doppler factor
Unknown
Orbital elements
Apogee altitude
799.383 km
Perigee altitude
671.534 km
Semi-major axis
7,113.596 km
Eccentricity
0.00899
Inclination
66.5318°
RAAN
43.4259°
Arg. of periapsis
76.2177°
True anomaly
20.68801°
Mean anomaly
20.3265°
Eccentric anomaly
20.50687°
Mean motion
3.61751 °/min
Orbital period
99.52 mins
BSTAR
0.00049724
Loading maneuver chart data...
Computing Atmospheric mass density...

Documentation

Showing up to 5 results
|